Regional Weather Roundup
Issued by NWS Boston, MA

Home | Current Version | Previous Version | Text Only | Print | Product List | Glossary On
Versions: 1 2 3 4 5 6 7 8 9 10 11 12 13 14 15 16 17 18 19 20 21 22 23 24 25 26 27 28 29 30 31 32 33 34 35 36 37 38 39 40 41 42 43 44 45 46 47 48 49 50
000
ASUS41 KBOX 251510
RWRBOX

REGIONAL WEATHER ROUNDUP
NATIONAL WEATHER SERVICE TAUNTON MA
1100 AM EDT SAT MAR 25 2017

NOTE:  "FAIR" INDICATES FEW OR NO CLOUDS BELOW 12,000 FEET WITH NO
SIGNIFICANT WEATHER AND/OR OBSTRUCTIONS TO VISIBILITY.

MAZALL-251600-
EASTERN MASSACHUSETTS

CITY           SKY/WX    TMP DP  RH WIND       PRES   REMARKS
BOSTON         LGT RAIN  39  37  92 NE9       30.24R
BEVERLY        LGT RAIN  39  36  89 NE8       30.23S
LAWRENCE       LGT RAIN  37  35  92 NE8       30.25R WCI  31
BEDFORD        CLOUDY    39  34  82 NE6       30.24R
BLUE HILL        N/A     37  33  85 NE13G21   30.21R WCI  29
NORWOOD        CLOUDY    43  36  76 E10       30.24R
MARSHFIELD     CLOUDY    43  37  81 NE8       30.23R
PLYMOUTH       CLOUDY    42  37  82 NE9       30.22R
TAUNTON        CLOUDY    45  37  73 VRB6      30.22R
NEW BEDFORD    CLOUDY    48  38  68 NE12      30.20R
$$

MAZALL-251600-
CAPE COD AND THE ISLANDS

CITY           SKY/WX    TMP DP  RH WIND       PRES   REMARKS
FALMOUTH       CLOUDY    45  37  76 MISG      30.22R
HYANNIS        LGT RAIN  45  38  76 N9        30.20R
CHATHAM        PTSUNNY   43  38  82 NE10G18   30.22R
PROVINCETOWN   CLOUDY    42  37  82 NE12      30.22S
NANTUCKET      CLOUDY    47  38  71 NE14G24   30.20R
MARTHAS VNYRD  CLOUDY    48  38  68 NE14      30.20R
$$

MAZALL-251600-
CENTRAL AND WESTERN MASSACHUSETTS

CITY           SKY/WX    TMP DP  RH WIND       PRES   REMARKS
WORCESTER      CLOUDY    39  33  79 NE8       30.20R
FITCHBURG      CLOUDY   N/A N/A N/A E5        30.24R
ORANGE         CLOUDY    39  34  82 N6        30.22R
SPRINGFIELD    CLOUDY    42  35  76 NW6       30.22R
WESTFIELD      CLOUDY    41  36  82 N6        30.23R
NORTH ADAMS    CLOUDY    37  36  96 W3        30.22R FOG
PITTSFIELD     CLOUDY    39  37  92 W3        30.18R
$$

RIZALL-251600-
RHODE ISLAND

CITY           SKY/WX    TMP DP  RH WIND       PRES   REMARKS
PROVIDENCE     CLOUDY    48  36  63 NE10      30.22R
NEWPORT        CLOUDY    47  39  74 NE6       30.21R
BLOCK ISLAND   LGT RAIN  46  37  71 NE10      30.20R
SMITHFIELD     CLOUDY    43  37  79 NE9       30.22R
WESTERLY       CLOUDY    50  40  68 NE9       30.21R
$$

CTZALL-251600-
CONNECTICUT

CITY           SKY/WX    TMP DP  RH WIND       PRES   REMARKS
BRADLEY INTL   CLOUDY    44  36  73 N8        30.22R
HARTFORD       CLOUDY    45  35  68 N7        30.22S
BRIDGEPORT     CLOUDY    48  39  71 NE3       30.19S
DANBURY        CLOUDY    50  39  66 NE5       30.18S
GROTON         CLOUDY    51  38  60 NE10      30.19R
NEW HAVEN      CLOUDY    50  37  61 N9        30.19S
CHESTER        NOT AVBL
MERIDEN        CLOUDY    49  36  61 N7        30.20S
WILLIMANTIC    CLOUDY    49  38  65 NE6       30.22R
OXFORD         CLOUDY    46  34  61 NE7       30.19R
$$

MEZ002-015-021-024-NHZ003-005-008-011-012-014-VTZ005-008-251600-
NORTHERN NEW ENGLAND

CITY           SKY/WX    TMP DP  RH WIND       PRES   REMARKS
PORTLAND ME    CLOUDY    38  29  70 NE12      30.25R WCI  30
BANGOR ME      CLOUDY    37  29  72 NW12      30.21S WCI  29
CONCORD NH     CLOUDY    37  33  85 CALM      30.24R
MANCHESTER NH  NOT AVBL
NASHUA NH      RAIN      37  36  96 NW3       30.26  FOG
PORTSMOUTH NH  CLOUDY    38  32  79 NE5       30.23R
JAFFREY NH     NOT AVBL
KEENE NH       NOT AVBL
BURLINGTON VT  CLOUDY    35  31  85 N8        30.29R WCI  29
MT. WASHINGTON PTSUNNY   23  19  86 NW24        N/A  WCI   7
$$

NYZ052-076-251600-
EASTERN NEW YORK

CITY           SKY/WX    TMP DP  RH WIND       PRES   REMARKS
ALBANY         LGT RAIN  37  31  78 N8        30.25R WCI  31
NEW YORK CITY  CLOUDY    53  36  52 NE9       30.16R
$$

ANZALL-251600-
MARINE OBSERVATIONS

STATION/POSITION TIME  TEMP    WIND        PRES    VSBY  WAVE
                       AIR SEA DIR/SP/G                  HT/PER
                 (UTC) (F)     (DEG/KT/KT) (MB)    (MI)  (FT/S)
BOSTON BUOY      1450   39 40   40/ 14/ 19 1022.6F         1/ 2
BUZZARDS BAY     1400   42      40/ 10/ 10 1022.9R
NANTUCKET SOUND  1450      39              1022.8R         1/ 5
MASS BAY-STELLWA 1404   39 39   40/  8/ 10 1022.4R         1/ 6
ISLE OF SHOALS   1400   38      30/  7/  9 1023.6R
S OF BLOCK IS    1455      42                N/A           7/ 8
$$

......................KEY.........................
  SKY/WX - SKY CONDITION/PRESENT WEATHER
  TMP    - TEMPERATURE IN FAHRENHEIT
  DWPT   - DEWPOINT IN FAHRENHEIT
  RH     - RELATIVE HUMIDITY IN PERCENT
  WIND   - DIRECTION AND SPEED IN MPH
  PRES   - MEAN SEA LEVEL PRESSURE IN INCHES OF HG
  WCI    - WIND CHILL INDEX
  VSB    - VISIBILITY IN MILES
  HX     - HEAT INDEX
  TC     - TEMPERATURE IN CELSIUS
  VRB    - VARIABLE WIND DIRECTION
  N/A    - NOT AVAILABLE



USA.gov is the U.S. government's official web portal to all federal, state and local government web resources and services.